TimePST,TemperatureF,Dew PointF,Humidity,Sea Level PressureIn,VisibilityMPH,Wind Direction,Wind SpeedMPH,Gust SpeedMPH,PrecipitationIn,Events,Conditions,WindDirDegrees,DateUTC
12:53 AM,55.0,51.1,86,30.03,7.0,Calm,Calm,-,N/A,,Clear,0,2012-11-07 08:53:00
1:53 AM,51.1,48.0,89,30.02,7.0,Calm,Calm,-,N/A,,Clear,0,2012-11-07 09:53:00
2:53 AM,52.0,48.0,86,30.02,6.0,Calm,Calm,-,N/A,,Clear,0,2012-11-07 10:53:00
3:53 AM,48.9,46.9,93,30.02,6.0,Calm,Calm,-,N/A,,Clear,0,2012-11-07 11:53:00
4:53 AM,51.1,46.9,86,30.03,6.0,Calm,Calm,-,N/A,,Clear,0,2012-11-07 12:53:00
5:53 AM,48.9,45.0,86,30.03,8.0,Calm,Calm,-,N/A,,Clear,0,2012-11-07 13:53:00
6:53 AM,48.9,45.0,86,30.04,7.0,Calm,Calm,-,N/A,,Clear,0,2012-11-07 14:53:00
7:53 AM,54.0,48.0,80,30.04,6.0,Calm,Calm,-,N/A,,Clear,0,2012-11-07 15:53:00
8:53 AM,57.9,51.1,78,30.03,5.0,Calm,Calm,-,N/A,,Clear,0,2012-11-07 16:53:00
9:53 AM,63.0,53.1,70,30.03,7.0,West,4.6,-,N/A,,Clear,280,2012-11-07 17:53:00
10:53 AM,66.0,54.0,65,30.01,7.0,West,10.4,-,N/A,,Clear,280,2012-11-07 18:53:00
11:53 AM,69.1,54.0,58,29.99,7.0,West,6.9,-,N/A,,Clear,260,2012-11-07 19:53:00
12:53 PM,70.0,53.1,55,29.96,10.0,West,9.2,-,N/A,,Clear,280,2012-11-07 20:53:00
1:53 PM,73.0,52.0,48,29.94,10.0,West,9.2,-,N/A,,Clear,280,2012-11-07 21:53:00
2:53 PM,69.1,53.1,57,29.94,10.0,West,12.7,-,N/A,,Clear,280,2012-11-07 22:53:00
3:53 PM,64.9,54.0,68,29.94,10.0,WNW,12.7,-,N/A,,Clear,300,2012-11-07 23:53:00
4:53 PM,59.0,53.1,81,29.94,10.0,WNW,11.5,-,N/A,,Partly Cloudy,290,2012-11-08 00:53:00
5:53 PM,57.0,54.0,89,29.96,10.0,WNW,11.5,-,N/A,,Scattered Clouds,290,2012-11-08 01:53:00
6:53 PM,55.9,52.0,87,29.96,10.0,West,6.9,-,N/A,,Scattered Clouds,270,2012-11-08 02:53:00
7:53 PM,55.0,52.0,89,29.96,10.0,SW,5.8,-,N/A,,Clear,220,2012-11-08 03:53:00
8:15 PM,55.4,51.8,88,29.96,10.0,West,5.8,-,N/A,,Mostly Cloudy,260,2012-11-08 04:15:00
8:44 PM,55.4,51.8,88,29.96,10.0,WSW,4.6,-,N/A,,Scattered Clouds,250,2012-11-08 04:44:00
8:53 PM,55.0,51.1,86,29.96,10.0,West,4.6,-,N/A,,Partly Cloudy,260,2012-11-08 04:53:00
9:53 PM,54.0,48.9,83,29.96,10.0,West,6.9,-,N/A,,Scattered Clouds,260,2012-11-08 05:53:00
10:53 PM,54.0,48.9,83,29.95,10.0,Calm,Calm,-,N/A,,Scattered Clouds,0,2012-11-08 06:53:00
11:53 PM,54.0,46.9,77,29.94,10.0,West,12.7,-,N/A,,Clear,260,2012-11-08 07:53:00